Location: Bennemühlen
(52.5740°N, 9.7135°E)
Time: 07:09:00
(UTC+00:00)

Vanguard 2 Rocket - Pass Details

Date: 22 February 2026
Orbit: 553 x 3286 km, 32.9° (Epoch: 7 March)

Event Time Altitude Azimuth Distance (km) Brightness Sun altitude
Rises 13:39:06 0° 256° (WSW) 7,211 12.2 21.9°
Reaches altitude 10° 13:44:54 10° 249° (WSW) 6,020 12.1 21.4°
Maximum altitude 13:59:25 32° 196° (SSW) 3,623 11.4 20.1°
Drops below altitude 10° 14:09:31 10° 139° (SE) 4,165 10.4 19.2°
Sets 14:12:42 0° 129° (SE) 4,801 10.6 18.8°
